Hourly Data Report for June 04, 2006

TORONTO CITY
ONTARIO

43°40'00.000" N
79°24'00.000" W
112.50 m
6158355
71508
XTO

Download Data

Hourly Data (June 2006)
Hourly Data Report for June 4, 2006
TIME
LST
Temp Definition
°C
Dew Point Definition
°C
Rel Hum Definition
%
Precip. Amount Definition
mm

Wind Dir Definition
10's deg

Wind Spd Definition
km/h
Visibility Definition
km
Stn Press Definition
kPa
Hmdx Definition


Wind Chill Definition


Weather Definition


00:00 14.3 13.5 95   LegendMM LegendMM   99.92     LegendNANA
01:00 14.6 13.3 92   LegendMM LegendMM   99.90     LegendNANA
02:00 14.6 13.8 95   LegendMM LegendMM   99.88     LegendNANA
03:00 14.9 13.8 93   LegendMM LegendMM   99.84     LegendNANA
04:00 15.0 13.6 91   LegendMM LegendMM   99.88     LegendNANA
05:00 14.9 13.3 90   LegendMM LegendMM   99.91     LegendNANA
06:00 15.1 12.7 86   LegendMM LegendMM   99.95     LegendNANA
07:00 15.7 12.9 83   LegendMM LegendMM   100.00     LegendNANA
08:00 16.7 13.2 80   LegendMM LegendMM   100.03     LegendNANA
09:00 17.4 13.5 78   LegendMM LegendMM   100.02     LegendNANA
10:00 18.3 13.3 73   LegendMM LegendMM   99.99     LegendNANA
11:00 18.9 12.1 65   LegendMM LegendMM   99.96     LegendNANA
12:00 20.1 11.5 58   LegendMM LegendMM   99.92     LegendNANA
13:00 21.7 10.7 50   LegendMM LegendMM   99.87     LegendNANA
14:00 20.1 12.5 62   LegendMM LegendMM   99.87     LegendNANA
15:00 20.8 13.6 63   LegendMM LegendMM   99.85     LegendNANA
16:00 20.0 13.1 64   LegendMM LegendMM   99.84     LegendNANA
17:00 19.2 12.3 64   LegendMM LegendMM   99.80     LegendNANA
18:00 18.4 12.0 66   LegendMM LegendMM   99.80     LegendNANA
19:00 18.3 11.8 66   LegendMM LegendMM   99.83     LegendNANA
20:00 18.1 11.5 65   LegendMM LegendMM   99.82     LegendNANA
21:00 17.1 11.5 70   LegendMM LegendMM   99.84     LegendNANA
22:00 16.8 10.4 66   LegendMM LegendMM   99.83     LegendNANA
23:00 17.4 11.5 68   LegendMM LegendMM   99.82     LegendNANA

Notes on Data Quality.

Legend

  • E = Estimated
  • M = Missing
  • NA = Not Available*
  • [empty] = Indicates an unobserved value
Date modified: